Spring Hill, FL

7:02 PM EDT on September 28, 2016 (GMT -0400)
Hernando County

Weather History for KBKV - December, 2013

Change the Weather History Date:

Tuesday, December 10, 2013

  Actual Average Record
Temperature  
Mean Temperature 70 °F -  
Max Temperature 82 °F 70 °F 84 °F (2000)
Min Temperature 57 °F 47 °F 30 °F (1996)
Cooling Degree Days 4    
Growing Degree Days 20 (Base 50)    
Moisture  
Dew Point 63 °F    
Average Humidity 92    
Maximum Humidity 100    
Minimum Humidity 49    
Precipitation  
Precipitation 0.01 in - - ()
Sea Level Pressure  
Sea Level Pressure 30.14 in    
Wind  
Wind Speed 4 mph (SSE)    
Max Wind Speed 15 mph    
Max Gust Speed -    
Visibility 5 miles    
Events Fog , Rain    
Averages and records for this station are not official NWS values.
T = Trace of Precipitation, MM = Missing Value Source: NWS Daily Summary

Daily Weather History Graph

Daily Weather History Graph

Search for Another Location

Airport or City:

Trip Planner

Search our weather history database for the weather conditions in past years. The results will help you decide how hot, cold, wet, or windy it might be!

Date:

Astronomy

Dec. 10, 2013 Rise Set
Actual Time 7:11 AM EST 5:33 PM EST
Civil Twilight 6:45 AM EST 5:59 PM EST
Nautical Twilight 6:16 AM EST 6:29 PM EST
Astronomical Twilight 5:47 AM EST 6:57 PM EST
Moon 1:09 PM EST (12/10) 12:56 AM EST (12/10)
Length of Visible Light 11h 13m
Length of Day
10h 22m
First Quarter, 61% of the Moon is Illuminated
Dec 10
First Quarter
Dec 17
Full
Dec 25
Last Quarter
Jan 1
New
Jan 7
First Quarter

Hourly Weather History & Observations

Time (EST) Temp. Heat Index Dew Point Humidity Pressure Visibility Wind Dir Wind Speed Gust Speed Precip Events Conditions
12:53 AM 64.0 °F - 63.0 °F 96% 30.13 in 10.0 mi SE 4.6 mph - N/A   Partly Cloudy
1:53 AM 64.9 °F - 64.9 °F 100% 30.12 in 10.0 mi SSE 4.6 mph - N/A   Partly Cloudy
2:25 AM 63.0 °F - 63.0 °F 100% 30.12 in 1.8 mi Calm Calm - N/A   Partly Cloudy
2:33 AM 62.1 °F - 62.1 °F 100% 30.12 in 1.2 mi SSE 3.5 mph - N/A   Partly Cloudy
2:38 AM 63.0 °F - 63.0 °F 100% 30.12 in 2.0 mi SSE 4.6 mph - N/A   Clear
2:53 AM 64.0 °F - 64.0 °F 100% 30.12 in 10.0 mi SSE 3.5 mph - N/A   Clear
3:34 AM 62.1 °F - 61.0 °F 96% 30.12 in 1.8 mi Calm Calm - N/A   Clear
3:39 AM 63.0 °F - 62.1 °F 97% 30.12 in 0.8 mi Calm Calm - N/A   Clear
3:50 AM 62.6 °F - 62.6 °F 100% 30.12 in 0.5 mi Calm Calm - N/A Fog Fog
3:53 AM 63.0 °F - 62.1 °F 97% 30.12 in 0.8 mi SSE 3.5 mph - N/A   Mist
4:10 AM 63.0 °F - 63.0 °F 100% 30.12 in 1.2 mi SSE 3.5 mph - N/A   Partly Cloudy
4:12 AM 63.0 °F - 63.0 °F 100% 30.12 in 2.5 mi SSE 3.5 mph - N/A   Partly Cloudy
4:19 AM 63.0 °F - 63.0 °F 100% 30.12 in 3.0 mi SSE 3.5 mph - N/A   Clear
4:23 AM 62.1 °F - 62.1 °F 100% 30.12 in 1.8 mi SSE 3.5 mph - N/A   Clear
4:25 AM 62.1 °F - 62.1 °F 100% 30.12 in 1.0 mi SE 3.5 mph - N/A   Mist
4:36 AM 62.1 °F - 62.1 °F 100% 30.12 in 1.8 mi SE 3.5 mph - N/A   Partly Cloudy
4:41 AM 61.0 °F - 61.0 °F 100% 30.12 in 1.0 mi Calm Calm - N/A   Mist
4:48 AM 62.6 °F - 60.8 °F 94% 30.12 in 0.5 mi SE 4.6 mph - N/A Fog Fog
4:53 AM 63.0 °F - 63.0 °F 100% 30.12 in 0.8 mi SE 4.6 mph - N/A   Mist
4:55 AM 63.0 °F - 63.0 °F 100% 30.12 in 1.2 mi SE 4.6 mph - N/A   Scattered Clouds
4:59 AM 63.0 °F - 63.0 °F 100% 30.12 in 2.0 mi SSE 4.6 mph - N/A   Partly Cloudy
5:09 AM 59.0 °F - 59.0 °F 100% 30.13 in 1.2 mi Calm Calm - N/A   Scattered Clouds
5:12 AM 59.0 °F - 59.0 °F 100% 30.13 in 0.8 mi Calm Calm - N/A   Mist
5:53 AM 61.0 °F - 61.0 °F 100% 30.13 in 0.2 mi Calm Calm - N/A Fog Fog
6:16 AM 57.0 °F - 57.0 °F 100% 30.14 in 0.2 mi Calm Calm - N/A Fog Fog
6:53 AM 57.9 °F - 57.9 °F 100% 30.14 in 0.5 mi Calm Calm - N/A Fog Fog
7:00 AM 57.9 °F - 57.9 °F 100% 30.15 in 0.8 mi ESE 4.6 mph - N/A   Mist
7:08 AM 57.9 °F - 57.9 °F 100% 30.15 in 1.8 mi SE 4.6 mph - N/A   Mostly Cloudy
7:11 AM 57.9 °F - 57.9 °F 100% 30.15 in 1.5 mi SSE 3.5 mph - N/A   Scattered Clouds
7:14 AM 57.9 °F - 57.9 °F 100% 30.15 in 0.8 mi Calm Calm - N/A   Mist
7:24 AM 57.9 °F - 57.9 °F 100% 30.15 in 0.2 mi Calm Calm - N/A Fog Fog
7:49 AM 60.8 °F - 60.8 °F 100% 30.15 in 1.2 mi SE 3.5 mph - N/A   Scattered Clouds
7:51 AM 60.8 °F - 60.8 °F 100% 30.15 in 2.0 mi SE 3.5 mph - N/A   Scattered Clouds
7:53 AM 60.1 °F - 60.1 °F 100% 30.15 in 4.0 mi SSE 3.5 mph - N/A   Partly Cloudy
8:53 AM 66.9 °F - 66.0 °F 97% 30.17 in 10.0 mi South 6.9 mph - N/A   Clear
9:53 AM 75.0 °F - 68.0 °F 79% 30.18 in 10.0 mi SSW 9.2 mph - N/A   Partly Cloudy
10:53 AM 78.1 °F - 66.0 °F 66% 30.18 in 10.0 mi SSW 15.0 mph - N/A   Clear
11:53 AM 80.1 °F 81.5 °F 63.0 °F 56% 30.17 in 10.0 mi SW 11.5 mph - N/A   Mostly Cloudy
12:53 PM 82.0 °F 82.7 °F 61.0 °F 49% 30.13 in 10.0 mi WSW 11.5 mph - N/A   Scattered Clouds
1:53 PM 82.0 °F 82.7 °F 61.0 °F 49% 30.11 in 10.0 mi SW 11.5 mph - N/A   Partly Cloudy
2:53 PM 80.1 °F 81.2 °F 62.1 °F 54% 30.10 in 10.0 mi West 11.5 mph - N/A   Mostly Cloudy
3:53 PM 79.0 °F - 61.0 °F 54% 30.10 in 10.0 mi SW 11.5 mph - N/A   Mostly Cloudy
4:53 PM 79.0 °F - 62.1 °F 56% 30.12 in 10.0 mi West 9.2 mph - N/A   Overcast
5:53 PM 73.0 °F - 66.9 °F 81% 30.14 in 10.0 mi North 9.2 mph - N/A   Overcast
6:53 PM 70.0 °F - 69.1 °F 97% 30.16 in 7.0 mi North 8.1 mph - 0.00 in Rain Light Rain
7:53 PM 70.0 °F - 69.1 °F 97% 30.17 in 10.0 mi NW 3.5 mph - 0.01 in Rain Light Rain
8:35 PM 70.0 °F - 69.1 °F 97% 30.18 in 10.0 mi Calm Calm - 0.00 in   Overcast
8:53 PM 70.0 °F - 69.1 °F 97% 30.18 in 10.0 mi Calm Calm - 0.00 in   Overcast
9:53 PM 69.1 °F - 68.0 °F 96% 30.19 in 10.0 mi NNE 10.4 mph - N/A   Overcast
10:53 PM 68.0 °F - 66.0 °F 93% 30.21 in 10.0 mi NNE 8.1 mph - N/A   Overcast
11:53 PM 66.9 °F - 64.0 °F 90% 30.21 in 10.0 mi NNE 10.4 mph - N/A   Overcast